User: anonymous   Login
Location: Grand Lay
(47.3253°N, 0.9468°E)
Time: 10:24:48
(UTC+00:00)
Language:

Gbstr 26 Del rocket - Orbit

View from above orbital plane
View from above orbital plane
View from above satellite
View from above satellite

Ground track
Ground track

The orbit is defined by the following mean orbital elements,

1 25876U          26072.90167897 +.00000000 +00000-0 +26070-3 0 00003
2 25876  51.7621 284.4563 0502476   0.8549 359.3133 14.11851718    08
Epoch (UTC): 13 March 2026 21:38:25
Eccentricity: 0.0502476
inclination: 51.7621°
perigee height: 490 km
apogee height: 1216 km
right ascension of ascending node: 284.4563°
argument of perigee: 0.8549°
revolutions per day: 14.11851718
mean anomaly at epoch: 359.3133°

The dashed part of the orbit path shows where the satellite is in the earth's shadow,  

DLR